Tracking 28794 objects as of 22-Apr-2024
HD Live streaming from Space Station
objects crossing your sky now

CENTAURI-1

Track CENTAURI-1 now!
10-day predictions
CENTAURI-1 is classified as:


NORAD ID: 43809
Int'l Code: 2018-099BD
Perigee: 551.0 km
Apogee: 579.6 km
Inclination: 97.5 °
Period: 95.8 minutes
Semi major axis: 6936 km
RCS: Unknown
Launch date: December 3, 2018
Source: Australia (AUS)
Launch site: AIR FORCE WESTERN TEST RANGE (AFWTR)

Uplink (MHz):
Downlink (MHz): 400.625
Beacon (MHz):
Mode: 9600bps FSK
Call sign:
Status: Inactive

Your satellite tracking list
Your tracking list is empty




NASA's NSSDC Master Catalog

Two Line Element Set (TLE):
1 43809U 18099BD  24112.15211707  .00010384  00000-0  77530-3 0  9996
2 43809  97.5364 171.1259 0020605 149.0553 211.1891 15.02839096293714
Source of the keplerian elements: AFSPC